Time,TemperatureF,DewpointF,PressureIn,WindDirection,WindDirectionDegrees,WindSpeedMPH,WindSpeedGustMPH,Humidity,HourlyPrecipIn,Conditions,Clouds,dailyrainin,SolarRadiationWatts/m^2,SoftwareType,DateUTC
2013-11-06 00:03:00,32.0,32.0,-100.00,NNE,13,14.0,24.0,100,0.00,,,0.23,6.000000,,2013-11-06 00:03:00,
2013-11-06 00:11:00,32.0,32.0,-100.00,NNE,13,13.0,24.0,100,0.00,,,0.23,0.000000,,2013-11-06 00:11:00,
2013-11-06 00:42:00,32.0,32.0,-100.00,NNE,13,13.0,24.0,100,0.00,,,0.23,0.000000,,2013-11-06 00:42:00,
2013-11-06 00:52:00,32.0,32.0,-100.00,NNE,13,13.0,24.0,100,0.00,,,0.23,0.000000,,2013-11-06 00:52:00,
2013-11-06 01:02:00,32.0,32.0,-100.00,NNE,13,13.0,24.0,100,0.00,,,0.23,0.000000,,2013-11-06 01:02:00,
2013-11-06 01:11:00,32.0,32.0,-100.00,North,0,7.0,20.0,100,0.00,,,0.23,0.000000,,2013-11-06 01:11:00,
2013-11-06 01:42:00,32.0,32.0,-100.00,North,0,7.0,20.0,100,0.00,,,0.23,0.000000,,2013-11-06 01:42:00,
2013-11-06 01:52:00,32.0,32.0,-100.00,North,0,7.0,20.0,100,0.00,,,0.23,0.000000,,2013-11-06 01:52:00,
2013-11-06 02:02:00,32.0,32.0,-100.00,North,0,7.0,20.0,100,0.00,,,0.23,0.000000,,2013-11-06 02:02:00,
2013-11-06 02:11:00,32.0,32.0,-100.00,North,353,7.0,13.0,100,0.00,,,0.23,0.000000,,2013-11-06 02:11:00,
2013-11-06 02:42:00,32.0,32.0,-100.00,North,353,7.0,13.0,100,0.00,,,0.23,0.000000,,2013-11-06 02:42:00,
2013-11-06 02:52:00,32.0,32.0,-100.00,North,353,7.0,13.0,100,0.00,,,0.23,0.000000,,2013-11-06 02:52:00,
2013-11-06 03:02:00,32.0,32.0,-100.00,North,353,7.0,13.0,100,0.00,,,0.23,0.000000,,2013-11-06 03:02:00,
2013-11-06 03:11:00,32.0,32.0,-100.00,North,352,7.0,14.0,100,0.00,,,0.23,0.000000,,2013-11-06 03:11:00,
2013-11-06 03:44:00,32.0,32.0,-100.00,North,352,7.0,14.0,100,0.00,,,0.23,0.000000,,2013-11-06 03:44:00,
2013-11-06 03:55:00,32.0,32.0,-100.00,North,352,7.0,14.0,100,0.00,,,0.23,0.000000,,2013-11-06 03:55:00,
2013-11-06 04:05:00,32.0,32.0,-100.00,North,352,7.0,14.0,100,0.00,,,0.23,0.000000,,2013-11-06 04:05:00,
2013-11-06 04:11:00,32.0,32.0,-100.00,North,357,6.0,14.0,100,0.00,,,0.23,0.000000,,2013-11-06 04:11:00,
2013-11-06 04:43:00,32.0,32.0,-100.00,North,357,6.0,14.0,100,0.00,,,0.23,0.000000,,2013-11-06 04:43:00,
2013-11-06 04:53:00,32.0,32.0,-100.00,North,357,6.0,14.0,100,0.00,,,0.23,0.000000,,2013-11-06 04:53:00,
2013-11-06 05:03:00,32.0,32.0,-100.00,North,357,6.0,14.0,100,0.00,,,0.23,0.000000,,2013-11-06 05:03:00,
2013-11-06 05:11:00,32.0,32.0,-100.00,NNW,346,8.0,18.0,100,0.00,,,0.23,0.000000,,2013-11-06 05:11:00,
2013-11-06 05:44:00,32.0,32.0,-100.00,NNW,346,8.0,18.0,100,0.00,,,0.23,0.000000,,2013-11-06 05:44:00,
2013-11-06 05:53:00,32.0,32.0,-100.00,NNW,346,8.0,18.0,100,0.00,,,0.23,0.000000,,2013-11-06 05:53:00,
2013-11-06 06:03:00,32.0,32.0,-100.00,NNW,346,8.0,18.0,100,0.00,,,0.23,0.000000,,2013-11-06 06:03:00,
2013-11-06 06:11:00,31.0,31.0,-100.00,NNW,342,7.0,18.0,100,0.01,,,0.24,0.000000,,2013-11-06 06:11:00,
2013-11-06 06:42:00,31.0,31.0,-100.00,NNW,342,7.0,18.0,100,0.01,,,0.24,0.000000,,2013-11-06 06:42:00,
2013-11-06 06:52:00,31.0,31.0,-100.00,NNW,342,7.0,18.0,100,0.01,,,0.24,0.000000,,2013-11-06 06:52:00,
2013-11-06 07:02:00,31.0,31.0,-100.00,NNW,342,7.0,18.0,100,0.01,,,0.24,0.000000,,2013-11-06 07:02:00,
2013-11-06 07:11:00,31.0,31.0,-100.00,NNW,347,4.0,12.0,100,0.00,,,0.24,0.000000,,2013-11-06 07:11:00,
2013-11-06 07:42:00,31.0,31.0,-100.00,NNW,347,4.0,12.0,100,0.00,,,0.24,0.000000,,2013-11-06 07:42:00,
2013-11-06 07:52:00,31.0,31.0,-100.00,NNW,347,4.0,12.0,100,0.00,,,0.24,0.000000,,2013-11-06 07:52:00,
2013-11-06 08:02:00,31.0,31.0,-100.00,NNW,347,4.0,12.0,100,0.00,,,0.24,0.000000,,2013-11-06 08:02:00,
2013-11-06 08:11:00,32.0,32.0,-100.00,NNW,335,6.0,10.0,100,0.00,,,0.24,0.000000,,2013-11-06 08:11:00,
2013-11-06 08:42:00,32.0,32.0,-100.00,NNW,335,6.0,10.0,100,0.00,,,0.24,0.000000,,2013-11-06 08:42:00,
2013-11-06 08:52:00,32.0,32.0,-100.00,NNW,335,6.0,10.0,100,0.00,,,0.24,0.000000,,2013-11-06 08:52:00,
2013-11-06 09:02:00,32.0,32.0,-100.00,NNW,335,6.0,10.0,100,0.00,,,0.24,0.000000,,2013-11-06 09:02:00,
2013-11-06 09:11:00,31.0,31.0,-100.00,NNW,328,5.0,10.0,100,0.00,,,0.24,0.000000,,2013-11-06 09:11:00,
2013-11-06 09:43:00,31.0,31.0,-100.00,NNW,328,5.0,10.0,100,0.00,,,0.24,0.000000,,2013-11-06 09:43:00,
2013-11-06 09:53:00,31.0,31.0,-100.00,NNW,328,5.0,10.0,100,0.00,,,0.24,0.000000,,2013-11-06 09:53:00,
2013-11-06 10:03:00,31.0,31.0,-100.00,NNW,328,5.0,10.0,100,0.00,,,0.24,0.000000,,2013-11-06 10:03:00,
2013-11-06 10:11:00,31.0,31.0,-100.00,NNW,332,5.0,9.0,100,0.00,,,0.24,0.000000,,2013-11-06 10:11:00,
2013-11-06 10:42:00,31.0,31.0,-100.00,NNW,332,5.0,9.0,100,0.00,,,0.24,0.000000,,2013-11-06 10:42:00,
2013-11-06 10:53:00,31.0,31.0,-100.00,NNW,332,5.0,9.0,100,0.00,,,0.24,0.000000,,2013-11-06 10:53:00,
2013-11-06 11:02:00,31.0,31.0,-100.00,NNW,332,5.0,9.0,100,0.00,,,0.24,0.000000,,2013-11-06 11:02:00,
2013-11-06 11:11:00,30.0,30.0,-100.00,NW,323,7.0,11.0,100,0.00,,,0.24,0.000000,,2013-11-06 11:11:00,
2013-11-06 11:42:00,30.0,30.0,-100.00,NW,323,7.0,11.0,100,0.00,,,0.24,0.000000,,2013-11-06 11:42:00,
2013-11-06 11:52:00,30.0,30.0,-100.00,NW,323,7.0,11.0,100,0.00,,,0.24,0.000000,,2013-11-06 11:52:00,
2013-11-06 12:02:00,30.0,30.0,-100.00,NW,323,7.0,11.0,100,0.00,,,0.24,0.000000,,2013-11-06 12:02:00,
2013-11-06 12:11:00,31.0,31.0,-100.00,NW,311,6.0,9.0,100,0.00,,,0.24,0.000000,,2013-11-06 12:11:00,
2013-11-06 12:42:00,31.0,31.0,-100.00,NW,311,6.0,9.0,100,0.00,,,0.24,0.000000,,2013-11-06 12:42:00,
2013-11-06 12:52:00,31.0,31.0,-100.00,NW,311,6.0,9.0,100,0.00,,,0.24,0.000000,,2013-11-06 12:52:00,
2013-11-06 13:02:00,31.0,31.0,-100.00,NW,311,6.0,9.0,100,0.00,,,0.24,0.000000,,2013-11-06 13:02:00,
2013-11-06 13:11:00,30.0,30.0,-100.00,NW,317,7.0,10.0,100,0.00,,,0.24,1.000000,,2013-11-06 13:11:00,
2013-11-06 13:42:00,30.0,30.0,-100.00,NW,317,7.0,10.0,100,0.00,,,0.24,1.000000,,2013-11-06 13:42:00,
2013-11-06 13:52:00,30.0,30.0,-100.00,NW,317,7.0,10.0,100,0.00,,,0.24,1.000000,,2013-11-06 13:52:00,
2013-11-06 14:02:00,30.0,30.0,-100.00,NW,317,7.0,10.0,100,0.00,,,0.24,1.000000,,2013-11-06 14:02:00,
2013-11-06 14:11:00,30.0,30.0,-100.00,NW,318,7.0,11.0,100,0.00,,,0.24,20.000000,,2013-11-06 14:11:00,
2013-11-06 14:42:00,30.0,30.0,-100.00,NW,318,7.0,11.0,100,0.00,,,0.24,20.000000,,2013-11-06 14:42:00,
2013-11-06 14:52:00,30.0,30.0,-100.00,NW,318,7.0,11.0,100,0.00,,,0.24,20.000000,,2013-11-06 14:52:00,
2013-11-06 15:02:00,30.0,30.0,-100.00,NW,318,7.0,11.0,100,0.00,,,0.24,20.000000,,2013-11-06 15:02:00,
2013-11-06 15:11:00,33.0,31.0,-100.00,NW,318,7.0,11.0,91,0.01,,,0.25,206.000000,,2013-11-06 15:11:00,
2013-11-06 15:43:00,33.0,31.0,-100.00,NW,318,7.0,11.0,91,0.01,,,0.25,206.000000,,2013-11-06 15:43:00,
2013-11-06 15:54:00,33.0,31.0,-100.00,NW,318,7.0,11.0,91,0.01,,,0.25,206.000000,,2013-11-06 15:54:00,
2013-11-06 16:03:00,33.0,31.0,-100.00,NW,318,7.0,11.0,91,0.01,,,0.25,206.000000,,2013-11-06 16:03:00,
2013-11-06 16:11:00,34.0,30.0,-100.00,WNW,299,6.0,12.0,86,0.08,,,0.33,319.000000,,2013-11-06 16:11:00,
2013-11-06 16:43:00,34.0,30.0,-100.00,WNW,299,6.0,12.0,86,0.08,,,0.33,319.000000,,2013-11-06 16:43:00,
2013-11-06 16:53:00,34.0,30.0,-100.00,WNW,299,6.0,12.0,86,0.08,,,0.33,319.000000,,2013-11-06 16:53:00,
2013-11-06 17:02:00,34.0,30.0,-100.00,WNW,299,6.0,12.0,86,0.08,,,0.33,319.000000,,2013-11-06 17:02:00,
2013-11-06 17:11:00,34.0,31.0,-100.00,NW,304,6.0,11.0,88,0.06,,,0.37,223.000000,,2013-11-06 17:11:00,
2013-11-06 17:43:00,34.0,31.0,-100.00,NW,304,6.0,11.0,88,0.06,,,0.37,223.000000,,2013-11-06 17:43:00,
2013-11-06 17:52:00,34.0,31.0,-100.00,NW,304,6.0,11.0,88,0.06,,,0.37,223.000000,,2013-11-06 17:52:00,
2013-11-06 18:02:00,34.0,31.0,-100.00,NW,304,6.0,11.0,88,0.06,,,0.37,223.000000,,2013-11-06 18:02:00,
2013-11-06 18:11:00,36.0,32.0,-100.00,WNW,289,5.0,10.0,86,0.08,,,0.40,327.000000,,2013-11-06 18:11:00,
2013-11-06 18:42:00,36.0,32.0,-100.00,WNW,289,5.0,10.0,86,0.08,,,0.40,327.000000,,2013-11-06 18:42:00,
2013-11-06 18:52:00,36.0,32.0,-100.00,WNW,289,5.0,10.0,86,0.08,,,0.40,327.000000,,2013-11-06 18:52:00,
2013-11-06 19:01:00,36.0,32.0,-100.00,WNW,289,5.0,10.0,86,0.08,,,0.40,327.000000,,2013-11-06 19:01:00,
2013-11-06 19:11:00,37.0,33.0,-100.00,NW,308,5.0,9.0,86,0.03,,,0.34,308.000000,,2013-11-06 19:11:00,
2013-11-06 19:42:00,37.0,33.0,-100.00,NW,308,5.0,9.0,86,0.03,,,0.34,308.000000,,2013-11-06 19:42:00,
2013-11-06 19:52:00,37.0,33.0,-100.00,NW,308,5.0,9.0,86,0.03,,,0.34,308.000000,,2013-11-06 19:52:00,
2013-11-06 20:02:00,37.0,33.0,-100.00,NW,308,5.0,9.0,86,0.03,,,0.34,308.000000,,2013-11-06 20:02:00,
2013-11-06 20:11:00,40.0,33.0,-100.00,WSW,244,4.0,9.0,75,0.03,,,0.33,450.000000,,2013-11-06 20:11:00,
2013-11-06 20:42:00,40.0,33.0,-100.00,WSW,244,4.0,9.0,75,0.03,,,0.33,450.000000,,2013-11-06 20:42:00,
2013-11-06 20:52:00,40.0,33.0,-100.00,WSW,244,4.0,9.0,75,0.03,,,0.33,450.000000,,2013-11-06 20:52:00,
2013-11-06 21:02:00,40.0,33.0,-100.00,WSW,244,4.0,9.0,75,0.03,,,0.33,450.000000,,2013-11-06 21:02:00,
2013-11-06 21:11:00,39.0,31.0,-100.00,WSW,252,4.0,9.0,73,0.00,,,0.31,354.000000,,2013-11-06 21:11:00,
2013-11-06 21:44:00,39.0,31.0,-100.00,WSW,252,4.0,9.0,73,0.00,,,0.31,354.000000,,2013-11-06 21:44:00,
2013-11-06 21:54:00,39.0,31.0,-100.00,WSW,252,4.0,9.0,73,0.00,,,0.31,354.000000,,2013-11-06 21:54:00,
2013-11-06 22:04:00,39.0,31.0,-100.00,WSW,252,4.0,9.0,73,0.00,,,0.31,354.000000,,2013-11-06 22:04:00,
2013-11-06 22:11:00,39.0,31.0,-100.00,SW,228,5.0,10.0,74,0.00,,,0.30,239.000000,,2013-11-06 22:11:00,
2013-11-06 22:43:00,39.0,31.0,-100.00,SW,228,5.0,10.0,74,0.00,,,0.30,239.000000,,2013-11-06 22:43:00,
2013-11-06 22:53:00,39.0,31.0,-100.00,SW,228,5.0,10.0,74,0.00,,,0.30,239.000000,,2013-11-06 22:53:00,
2013-11-06 23:02:00,39.0,31.0,-100.00,SW,228,5.0,10.0,74,0.00,,,0.30,239.000000,,2013-11-06 23:02:00,
2013-11-06 23:11:00,36.0,32.0,-100.00,SW,230,5.0,8.0,86,0.00,,,0.30,46.000000,,2013-11-06 23:11:00,
2013-11-06 23:42:00,36.0,32.0,-100.00,SW,230,5.0,8.0,86,0.00,,,0.30,46.000000,,2013-11-06 23:42:00,
2013-11-06 23:53:00,36.0,32.0,-100.00,SW,230,5.0,8.0,86,0.00,,,0.30,46.000000,,2013-11-06 23:53:00,